Location: ??????
(55.0357°N, 38.6195°E)
Time: 08:18:27
(UTC+00:00)

SL-16 R/B - Visible Passes

Search period start: 24 July 2024 00:00
Search period end: 03 August 2024 00:00
Orbit: 984 x 1007 km, 99.7° (Epoch: 23 July)

Date Brightness Start Highest point End Pass type
(mag) Time Alt. Az. Time Alt. Az. Time Alt. Az.
24 Jul 4.7 21:54:22 10° E 21:58:58 23° NE 22:03:35 10° N visible
24 Jul 2.7 23:35:36 10° SSE 23:41:44 77° ENE 23:47:56 10° NNW visible
25 Jul 5.3 20:45:54 10° NE 20:47:30 11° NNE 20:49:05 10° NNE visible
25 Jul 4.2 22:24:01 10° ESE 22:29:20 32° NE 22:34:40 10° N visible
26 Jul 2.5 00:06:22 10° S 00:12:31 72° WSW 00:18:43 10° NNW visible
26 Jul 5.1 21:14:22 10° ENE 21:17:36 15° NE 21:20:49 10° N visible
26 Jul 3.6 22:54:01 10° SE 22:59:49 45° ENE 23:05:38 10° N visible
27 Jul 2.9 00:37:31 10° S 00:43:25 47° W 00:49:23 10° NNW visible
27 Jul 4.9 21:43:31 10° E 21:47:48 20° NE 21:52:05 10° N visible
27 Jul 2.9 23:24:18 10° SSE 23:30:25 67° ENE 23:36:32 10° NNW visible
28 Jul 4.4 22:13:03 10° ESE 22:18:06 28° NE 22:23:12 10° N visible
28 Jul 2.5 23:54:57 10° SSE 00:01:08 83° WSW 00:07:21 10° NNW visible
29 Jul 5.1 21:03:45 10° ENE 21:06:28 13° NE 21:09:11 10° N visible
29 Jul 3.8 22:42:54 10° ESE 22:48:32 39° ENE 22:54:12 10° N visible
30 Jul 2.7 00:25:58 10° S 00:32:00 55° WSW 00:38:04 10° NNW visible
30 Jul 5.0 21:32:43 10° E 21:36:38 18° NE 21:40:33 10° N visible
30 Jul 3.2 23:13:06 10° SE 23:19:05 57° ENE 23:25:08 10° NNW visible
31 Jul 4.6 22:02:06 10° E 22:06:54 25° NE 22:11:43 10° N visible
31 Jul 2.6 23:43:36 10° SSE 23:49:46 85° ENE 23:55:59 10° NNW visible
01 Aug 5.2 20:53:16 10° NE 20:55:22 12° NNE 20:57:28 10° N visible
01 Aug 4.1 22:31:51 10° ESE 22:37:17 34° NE 22:42:46 10° N visible
02 Aug 2.6 00:14:27 10° S 00:20:34 65° WSW 00:26:44 10° NNW visible
02 Aug 5.0 21:21:58 10° ENE 21:25:29 16° NE 21:29:01 10° N visible
02 Aug 3.4 23:01:55 10° SE 23:07:47 50° ENE 23:13:42 10° NNW visible
